Location: Ahausen
(50.4985°N, 8.2722°E)
Time: 06:56:55
(UTC+00:00)

CENTAUR R/B - Pass Details

Date: 18 September 2020
Orbit: 755 x 1433 km, 63.4° (Epoch: 02 October)

Event Time Altitude Azimuth Distance (km) Brightness Sun altitude
Rises 19:23:01 0° 315° (NW) 4,059 7.1 -17.7°
Reaches altitude 10° 19:25:37 10° 317° (NW) 3,181 6.2 -18.1°
Maximum altitude 19:33:31 80° 45° (NE) 1,368 3.1 -19.2°
Enters shadow 19:38:32 29° 129° (SE) 2,330 3.9 -19.9°
